Wind_Speed
20 20 20 20 20 20 21 21 22 22 23 24 26 28 29 30 30 30 32 34 37 40 42 44 45 45 46 46 46 46 45 45 44 44 44 45 45 46 47 48 48 47 46 45 44 43 42 41 41 41 39 39 38 33 29 26 25 24 19 16 15 12 11 12 11 11 9 8 8 4 5 4 2 6 9 12 15 18 20 23 26 28 25 20 19 19 20 22
21 22 23 23 24 24 24 24 24 24 24 24 25 26 27 29 31 31 32 33 35 39 42 44 46 46 47 47 47 47 47 46 45 45 46 46 46 47 48 49 49 48 47 45 44 44 44 43 43 43 41 40 40 35 32 28 26 24 19 17 17 14 12 12 11 12 10 9 10 8 5 3 4 5 7 10 14 17 18 21 24 27 27 23 20 19 19 21
22 23 24 26 27 27 28 27 27 27 26 26 27 27 27 28 29 31 33 33 34 37 40 44 46 47 48 49 49 49 48 48 46 47 47 47 47 48 49 50 50 49 49 47 46 46 45 46 45 45 43 42 42 38 35 30 26 25 20 18 17 13 12 10 10 11 11 10 11 10 4 2 2 4 4 6 12 16 16 18 22 25 28 26 22 20 19 19
23 24 25 27 28 30 31 31 31 30 30 29 29 29 29 29 29 30 32 34 35 36 39 42 45 47 49 50 50 50 50 49 48 48 48 48 49 50 50 51 51 50 50 49 48 48 47 47 46 47 45 43 43 40 38 31 27 26 20 18 17 15 14 10 10 12 12 10 12 12 8 6 2 5 2 3 8 13 14 16 20 23 26 27 25 21 20 19
23 24 25 27 29 31 32 33 33 33 33 33 32 32 31 31 30 30 31 33 35 37 38 40 44 47 49 50 51 52 52 51 51 50 49 50 50 51 51 52 52 52 52 52 51 50 49 49 48 48 47 45 45 42 40 34 29 25 21 20 18 18 17 12 12 15 14 11 12 13 12 10 5 6 3 1 6 10 13 14 17 21 24 27 27 25 22 20
25 26 27 27 29 31 32 33 34 35 35 36 36 35 34 33 32 32 32 33 34 36 38 40 42 45 49 51 52 53 54 53 52 51 51 51 52 52 52 53 53 53 53 54 53 52 50 50 49 49 48 46 46 44 41 37 30 24 21 23 21 20 18 14 15 17 18 17 14 13 13 11 7 7 4 2 3 7 11 12 14 18 21 25 27 27 26 23
30 31 31 31 31 32 32 33 34 35 36 37 38 38 37 36 35 34 34 35 35 36 38 40 41 44 47 51 53 54 55 55 54 53 53 52 53 53 53 54 54 54 54 55 55 54 52 51 50 50 50 48 47 46 43 38 33 26 22 24 23 22 19 15 16 17 18 20 16 14 15 13 10 9 6 4 4 4 8 10 12 15 18 21 25 26 28 27
36 36 36 36 36 35 35 35 35 35 36 37 38 39 39 39 38 37 36 36 37 37 38 39 42 44 46 49 53 55 55 56 56 56 55 54 54 55 55 56 56 55 54 55 56 55 53 52 51 51 51 51 50 48 44 40 35 31 26 27 29 24 20 18 18 18 17 15 17 16 16 16 13 10 8 6 6 4 5 8 9 13 16 18 21 23 26 28
42 42 41 40 40 40 40 39 38 38 38 38 38 40 40 41 41 40 39 39 38 38 39 40 41 44 46 48 51 54 56 57 58 58 57 56 55 56 56 57 56 56 56 56 57 57 56 54 53 53 53 53 51 49 45 42 38 36 31 32 34 28 22 23 21 19 17 14 17 18 17 17 15 12 10 9 7 4 3 5 6 10 13 16 18 20 22 24
47 47 46 45 45 44 44 43 42 42 42 41 40 40 41 41 42 42 42 41 40 40 40 41 42 44 47 49 50 53 56 58 60 60 59 58 57 57 57 58 57 58 58 57 58 59 58 55 54 54 54 54 53 51 47 44 41 38 34 34 36 31 26 27 24 19 17 16 17 18 18 18 15 13 13 11 9 5 2 3 4 7 10 13 15 17 19 21
48 48 48 48 49 49 48 48 47 46 46 45 43 42 42 42 42 43 44 44 43 42 42 42 44 45 47 49 50 52 55 59 60 60 60 60 58 58 58 59 59 59 59 59 60 60 59 56 55 55 55 56 56 54 50 47 44 40 36 36 36 32 31 32 30 23 17 17 21 21 21 21 17 14 15 13 10 7 3 2 2 5 7 10 12 14 16 17
49 49 48 48 48 49 50 50 51 50 50 48 47 46 45 44 43 43 44 45 45 44 44 44 45 46 47 49 51 53 54 58 61 60 61 62 60 60 60 60 60 60 61 61 61 60 60 58 56 56 57 58 58 56 55 52 48 44 39 39 39 36 36 36 33 28 21 21 25 25 24 23 19 16 17 14 12 8 5 4 2 3 5 7 9 11 13 15
53 53 52 51 50 50 50 50 50 51 52 51 51 50 49 48 47 45 45 46 47 47 46 46 46 47 48 48 50 54 56 58 61 61 62 63 62 61 61 61 61 62 62 62 62 61 60 60 58 58 59 59 60 59 58 56 52 48 44 42 42 39 39 39 36 32 28 26 27 28 25 22 20 19 17 15 14 11 7 6 4 4 3 4 6 8 10 12
57 57 56 55 54 54 53 51 51 50 51 51 52 53 52 51 51 49 47 47 47 48 48 49 49 49 49 49 51 55 58 60 61 61 62 64 64 63 62 62 62 63 63 64 63 62 61 62 62 61 61 62 62 61 60 58 54 51 48 46 45 41 40 40 38 34 31 30 29 29 26 22 23 20 16 15 14 11 10 9 6 4 4 3 4 6 8 10
61 60 60 59 58 57 56 54 53 52 52 52 52 53 54 53 53 52 51 50 49 50 51 51 51 51 51 51 53 55 59 61 61 60 62 64 65 65 64 64 64 64 64 64 64 63 63 65 65 63 63 64 64 63 62 60 57 54 51 50 49 44 42 41 39 36 32 32 32 31 27 25 24 21 19 19 16 13 13 11 7 6 6 4 3 4 6 8
66 65 64 62 61 59 57 56 54 53 53 53 53 53 54 54 54 54 54 54 52 52 53 54 54 54 53 54 54 55 58 62 61 60 62 64 66 67 66 66 65 65 65 65 65 64 64 66 67 66 66 65 65 64 63 63 61 58 53 52 51 46 45 43 40 37 33 33 33 31 29 27 25 23 22 21 19 17 14 11 10 9 8 7 5 3 3 6
71 70 68 65 63 61 59 58 56 55 54 54 54 55 55 55 55 55 56 56 56 55 55 56 56 56 56 56 55 55 56 60 61 60 61 64 67 68 68 68 67 66 67 66 66 66 66 67 69 69 68 67 67 65 65 65 65 63 58 54 52 51 51 44 40 39 35 35 36 32 30 29 28 26 24 22 21 19 13 10 11 11 10 9 8 5 2 3
75 73 69 67 65 62 60 59 57 55 54 54 54 55 56 57 57 58 58 58 58 58 58 58 58 58 57 56 56 55 56 58 61 61 61 64 67 69 70 70 69 68 68 67 68 68 68 68 71 71 69 68 67 67 68 69 68 66 62 57 53 54 53 45 42 41 35 36 40 37 32 31 31 28 25 23 24 20 12 10 11 12 11 11 10 8 4 1
77 73 70 67 64 62 59 57 55 53 52 52 53 55 56 58 59 60 60 60 60 61 60 60 60 59 57 57 57 55 56 60 62 62 62 64 67 69 70 70 70 69 69 69 70 70 70 69 71 72 71 69 69 70 70 70 69 68 65 60 55 53 51 47 45 41 36 36 40 40 36 34 31 28 26 26 25 20 14 12 12 12 12 13 12 10 7 4
77 73 69 66 63 59 56 52 50 48 48 48 50 52 55 57 59 61 61 61 62 63 63 61 61 61 59 58 58 57 58 61 62 62 64 66 68 69 71 72 72 71 71 71 71 71 71 70 71 74 74 73 72 72 71 69 70 71 68 63 58 53 50 51 48 41 38 38 39 39 36 35 33 29 29 28 25 20 16 14 13 12 12 13 14 12 10 7
78 73 68 63 58 54 50 46 44 42 42 43 45 48 51 55 59 61 62 63 64 65 65 64 63 62 61 59 57 58 60 61 63 63 64 67 69 69 71 73 73 73 73 73 72 71 72 72 72 75 77 76 75 74 72 70 70 72 71 66 62 57 52 53 50 43 41 39 39 39 35 34 33 31 30 28 24 22 19 16 16 15 12 12 15 14 13 11
79 71 65 58 53 48 44 41 39 38 37 38 40 43 47 51 56 60 62 64 65 67 67 66 65 64 63 61 59 60 62 61 63 64 64 67 70 71 72 74 75 75 75 74 72 72 73 74 74 76 78 79 77 75 73 71 71 72 73 69 65 61 56 53 51 48 47 43 39 39 36 34 33 30 30 29 25 24 22 19 19 18 14 12 13 13 14 14
77 68 60 53 47 42 39 36 35 34 34 34 36 39 42 47 52 57 61 64 66 68 68 67 66 66 65 63 62 63 64 63 63 65 65 66 71 73 72 74 76 77 76 74 73 73 74 76 77 76 78 80 79 77 75 73 72 72 73 71 68 64 59 55 51 50 50 45 41 40 37 35 33 30 30 30 27 27 26 22 21 21 17 13 13 11 12 15
73 63 54 47 42 38 34 32 31 30 30 31 33 36 39 43 48 54 59 63 66 68 68 68 68 68 67 65 64 64 65 65 65 66 67 67 71 74 74 75 78 78 77 76 75 75 77 79 79 78 79 82 81 79 77 74 73 73 74 73 71 67 62 58 53 51 49 44 41 41 39 35 34 33 32 31 30 29 27 24 23 23 20 16 13 11 11 13
68 58 50 43 38 34 31 28 26 26 26 28 30 32 36 40 44 50 56 60 64 67 68 69 70 70 68 67 66 65 65 66 66 67 68 68 71 74 76 77 78 79 79 79 78 78 79 80 80 79 79 81 82 80 78 77 75 73 74 75 74 71 67 62 56 53 51 46 43 44 44 38 32 32 33 33 31 29 27 25 26 24 20 18 15 12 11 13
63 54 45 39 34 30 26 23 22 22 23 25 27 29 32 36 41 46 52 57 62 65 68 69 70 71 70 69 68 66 66 67 67 68 68 69 72 74 77 78 79 80 81 81 81 81 81 81 80 80 80 81 82 82 81 79 77 74 74 76 78 75 71 67 61 56 54 52 47 46 50 45 36 33 33 34 32 30 28 26 25 22 20 20 17 14 12 12
59 50 42 35 30 26 22 19 19 19 20 22 24 26 29 33 37 42 48 53 59 63 66 68 70 71 71 70 69 69 68 68 69 68 68 70 73 75 77 79 80 81 82 82 82 82 82 82 81 82 82 81 82 84 83 81 79 77 76 77 79 77 75 71 66 60 56 55 52 48 50 50 43 38 35 35 35 32 29 26 24 23 21 21 20 17 14 12
55 46 38 32 27 23 19 16 16 16 18 20 22 24 27 30 34 39 44 50 55 60 63 67 69 70 71 72 72 71 70 70 70 69 69 70 73 75 77 80 82 82 82 82 82 84 84 83 82 83 83 82 83 84 85 84 82 80 77 77 79 80 79 74 69 64 58 57 57 53 51 51 47 44 39 36 36 34 30 28 25 23 23 24 22 20 17 14
52 43 35 29 24 20 16 14 13 14 15 17 20 23 26 29 32 36 41 47 52 56 60 64 66 68 71 73 73 72 72 72 71 70 70 70 72 75 78 80 82 82 82 83 84 85 85 84 84 84 84 84 85 86 87 87 85 83 80 79 80 82 82 78 72 68 61 59 60 55 52 53 51 48 44 39 37 35 32 31 27 24 25 26 24 22 20 17
49 39 31 25 21 17 14 12 11 11 13 14 17 20 24 27 30 34 38 43 48 52 56 61 64 67 70 72 72 72 72 72 72 70 69 70 71 74 77 79 82 83 84 86 88 88 88 87 86 85 86 86 87 87 87 89 88 86 84 83 83 84 85 82 78 74 65 61 62 56 53 55 55 52 47 41 38 36 35 33 29 26 27 29 26 23 23 21
46 36 28 22 18 15 13 11 10 10 10 12 14 17 21 24 28 32 35 40 44 48 53 58 62 65 68 70 72 72 72 71 71 70 69 70 72 74 76 78 81 84 85 88 90 91 91 90 89 88 88 89 89 88 87 89 90 88 87 86 85 85 87 86 83 78 71 66 63 58 55 57 59 56 51 45 40 39 39 35 32 30 31 32 27 23 24 24
44 34 26 20 16 13 12 11 10 9 9 10 12 14 17 20 24 29 33 37 41 45 50 55 59 63 66 69 70 71 70 70 70 71 71 71 72 74 76 79 82 85 87 89 92 94 94 93 92 91 90 90 90 88 87 88 91 91 89 88 86 85 86 87 85 81 77 74 69 64 59 58 60 58 54 50 45 43 42 40 37 35 35 33 27 24 26 25
41 31 24 19 15 12 12 11 10 9 9 9 11 13 15 17 21 25 30 34 39 43 48 52 56 60 64 67 68 68 69 70 71 72 73 73 74 76 79 81 84 87 90 92 94 95 95 95 94 93 92 91 90 89 88 87 90 93 92 90 88 86 84 85 86 84 83 81 77 73 66 61 61 59 57 55 51 47 46 45 44 41 38 33 25 25 27 24
38 29 23 18 14 12 12 13 12 10 9 9 10 11 13 15 18 22 26 31 36 40 45 50 54 58 61 64 66 68 69 71 72 73 74 74 75 78 81 83 86 89 93 94 95 96 97 97 96 95 93 92 91 90 89 88 89 92 94 93 90 87 85 84 85 86 87 86 83 79 72 65 63 61 59 59 57 53 50 51 50 45 40 33 26 28 31 29
37 28 22 17 13 11 11 12 12 10 8 8 9 11 13 15 18 21 24 28 33 38 43 48 52 56 59 62 65 68 70 71 72 73 75 76 78 81 84 87 90 91 93 95 96 97 98 98 98 96 94 92 92 91 90 89 89 91 95 95 92 90 88 87 87 88 90 88 85 82 76 69 65 64 63 62 61 58 55 55 53 47 43 38 34 35 37 35
35 27 21 16 13 12 11 11 10 8 8 8 10 11 14 17 19 22 24 27 31 35 40 44 49 53 56 60 64 67 69 71 72 73 76 78 80 83 87 90 91 91 92 95 97 98 99 99 99 96 94 94 93 92 91 91 90 91 95 96 95 92 91 90 91 92 92 90 86 84 80 73 69 68 66 65 64 62 59 57 55 51 46 42 39 39 40 39
34 26 20 15 13 12 13 12 9 8 8 9 11 13 15 17 19 22 24 27 31 34 37 40 44 48 53 57 61 65 68 71 73 75 77 80 82 84 87 89 89 89 90 93 96 97 98 99 98 96 96 96 95 94 93 92 91 92 93 95 97 95 93 94 94 93 92 90 87 84 82 78 73 71 69 67 65 62 59 58 58 56 51 45 41 42 44 43
33 26 20 15 12 12 12 11 9 7 8 9 11 13 15 17 19 20 22 27 32 35 37 39 42 45 50 55 60 63 66 71 76 78 80 82 84 84 85 85 86 87 89 91 94 96 97 98 98 98 98 97 96 96 94 93 93 92 91 93 97 98 97 97 96 95 92 90 87 85 83 81 77 74 71 68 65 63 60 59 59 59 57 51 45 44 47 46
31 25 20 17 14 12 10 9 9 9 10 11 12 14 17 19 20 21 21 24 29 33 36 39 42 44 48 53 58 62 65 70 75 78 81 82 83 82 83 83 84 86 87 90 93 96 97 99 99 100 100 98 97 96 95 94 94 93 91 92 96 98 99 99 98 97 94 90 88 85 84 83 80 76 73 70 66 63 63 62 60 59 60 56 50 48 49 47
30 24 20 17 15 13 11 9 10 11 12 13 14 16 19 21 21 21 21 22 25 29 35 40 44 46 50 52 53 57 63 68 71 74 77 79 79 79 80 82 84 85 87 89 92 95 97 99 100 100 100 99 98 97 96 95 95 94 94 94 94 96 99 100 98 98 96 93 90 87 85 86 85 81 75 70 66 63 63 65 63 59 59 59 56 53 53 50
29 23 19 16 14 13 12 11 10 10 11 13 15 17 19 21 22 22 21 21 22 26 32 38 43 47 50 50 50 55 60 65 67 68 70 73 75 77 79 80 83 85 87 88 90 94 97 100 101 101 101 101 100 99 97 97 96 96 96 96 95 96 99 100 101 101 98 94 92 89 87 88 88 85 79 72 69 65 61 64 66 60 57 60 60 57 56 55
28 23 19 15 13 12 11 11 11 10 12 13 15 17 20 23 23 22 20 19 20 22 27 34 40 45 49 50 52 56 59 62 65 66 68 70 74 77 79 80 82 85 87 88 91 94 96 99 100 100 102 102 102 102 101 99 98 97 96 97 98 98 99 101 103 104 100 96 94 92 89 88 87 87 85 78 74 68 59 60 67 65 60 60 62 61 60 59
27 23 19 14 12 12 11 11 11 11 12 14 16 18 21 23 24 23 20 17 17 19 23 29 35 41 46 50 55 58 60 62 63 64 68 71 72 75 77 79 82 84 86 89 91 93 95 97 99 100 102 103 104 104 102 100 99 98 99 100 100 101 101 101 103 104 103 100 98 95 92 90 87 87 86 82 79 75 67 63 67 71 68 63 62 65 65 62
26 23 19 14 12 12 12 12 12 12 13 15 16 19 22 24 24 23 19 15 14 15 18 24 30 36 43 48 54 58 61 63 63 64 68 70 71 73 74 77 80 83 85 88 90 92 94 95 97 99 101 103 104 104 103 102 101 101 103 103 101 101 101 101 102 103 104 103 101 99 96 92 90 89 87 84 82 79 75 73 71 72 73 68 63 66 69 66
26 22 18 14 12 12 12 12 13 13 13 15 17 19 21 23 24 24 20 15 12 11 14 19 25 32 38 44 50 55 59 63 65 66 68 69 70 71 72 75 78 80 83 87 89 90 92 94 96 98 99 102 104 104 103 104 104 104 105 105 102 101 101 101 100 101 103 104 102 101 99 96 92 90 88 87 85 82 80 80 78 74 75 73 68 67 70 71
26 22 18 15 13 12 13 13 14 14 14 16 17 19 21 23 25 25 21 16 11 8 10 15 21 27 33 39 45 50 56 62 66 68 69 70 70 70 71 73 76 78 81 84 87 89 91 93 95 96 98 99 102 103 104 105 105 106 106 105 103 103 102 101 99 98 100 102 102 101 100 98 94 91 89 87 87 87 85 83 84 81 79 78 75 70 70 73
26 22 19 17 14 12 12 12 14 15 15 16 18 19 22 23 25 26 23 18 12 7 6 10 17 24 29 34 39 45 50 57 63 68 70 71 71 70 70 72 74 76 78 81 85 87 89 91 93 95 96 97 99 102 104 106 106 107 107 106 104 104 103 100 98 97 97 98 100 101 100 98 95 93 91 89 88 89 89 88 88 88 85 83 82 78 74 73
26 22 19 17 15 13 12 12 13 15 15 16 18 19 21 23 25 26 25 21 14 8 4 6 12 19 25 29 33 39 44 51 59 65 69 72 74 73 72 72 73 74 77 80 82 84 86 89 91 92 94 96 97 100 104 107 108 109 110 108 106 106 105 101 98 98 98 97 98 99 99 98 97 94 93 91 89 89 91 92 90 90 90 88 86 84 81 78
26 21 18 16 15 13 12 11 12 14 15 16 18 19 21 23 25 26 26 23 17 11 5 4 8 14 21 25 28 33 39 46 54 60 65 70 74 76 76 76 76 76 77 79 81 82 84 87 88 89 92 95 96 99 103 107 109 110 111 110 108 107 105 102 100 99 99 97 96 96 98 99 99 96 94 93 91 91 92 92 92 92 93 93 91 88 86 84
25 21 19 16 14 13 11 10 11 13 14 16 17 19 20 22 24 26 27 25 21 14 8 3 4 10 17 22 26 29 34 41 48 54 59 65 71 76 79 79 79 79 79 79 80 80 82 85 86 86 89 93 95 97 100 105 108 111 112 111 110 108 107 105 102 101 100 98 96 95 96 98 99 98 95 93 93 93 93 92 93 94 94 94 94 92 90 88
25 21 19 16 14 13 11 10 10 12 13 15 17 18 19 22 24 26 27 27 24 18 11 6 3 6 12 18 23 27 30 36 42 47 52 58 66 73 78 81 82 82 81 81 80 80 82 84 85 84 85 89 94 96 98 102 106 109 111 112 111 110 109 107 105 103 102 99 97 95 95 96 97 98 97 96 94 94 94 93 94 95 95 94 93 93 92 91
24 20 18 16 14 13 11 9 9 11 12 13 15 17 18 20 23 25 27 27 26 21 15 9 5 3 7 13 19 24 28 31 34 38 44 51 59 67 74 79 82 84 83 82 82 82 83 84 85 83 83 87 92 96 98 100 104 108 110 112 112 111 110 109 107 105 105 103 101 99 97 97 97 97 98 98 96 94 94 95 95 96 97 97 96 94 93 92
Wind_Direction
293 290 285 281 277 273 271 269 267 265 263 260 257 254 251 250 249 247 243 236 232 231 229 227 226 224 223 222 223 223 222 220 217 213 211 209 207 206 207 208 207 205 203 202 203 203 204 203 201 199 195 190 188 188 184 181 180 168 149 148 160 166 174 185 189 190 203 238 252 210 177 203 116 77 60 66 61 55 54 52 52 49 50 53 58 67 71 74
289 287 284 281 278 274 270 267 265 263 262 261 259 256 252 249 247 246 245 241 236 232 230 229 227 225 224 222 222 222 222 221 218 215 212 209 208 207 207 207 206 205 204 203 203 203 204 203 201 199 196 192 189 189 185 183 182 169 149 152 166 168 174 189 189 185 197 226 237 219 181 136 94 78 61 68 66 58 54 54 55 52 52 52 55 64 69 73
291 287 284 282 279 275 272 269 266 263 260 258 258 257 254 250 247 244 243 242 239 235 231 230 229 227 225 223 222 222 222 221 219 217 214 210 209 208 207 207 206 205 204 203 203 202 203 202 201 199 198 193 190 190 187 185 179 163 149 155 169 172 174 190 192 190 198 218 238 239 211 154 115 106 83 63 68 62 54 56 58 55 53 53 53 60 67 71
298 294 290 286 282 278 275 271 268 265 262 258 256 254 253 251 248 245 243 241 240 237 234 231 229 229 227 225 223 222 221 220 219 218 215 212 210 209 208 207 206 205 204 203 203 202 202 202 200 199 198 194 191 191 189 187 176 161 154 157 166 173 171 180 193 193 194 215 247 258 269 262 196 130 125 53 70 68 58 56 59 59 55 54 54 57 64 68
300 297 294 291 288 284 280 276 272 269 265 262 258 254 251 249 248 246 244 241 239 237 236 233 230 229 228 226 224 223 221 220 219 218 216 214 212 209 209 208 206 205 204 203 203 202 201 201 200 199 198 196 193 193 190 188 176 163 162 160 164 174 170 174 191 195 192 205 239 249 270 270 201 157 182 74 82 75 64 56 59 63 59 57 55 55 59 64
303 299 296 292 290 288 285 282 278 274 270 266 263 259 254 249 246 244 243 242 240 237 236 234 232 230 229 228 226 224 222 220 219 218 216 215 213 211 209 209 207 206 205 204 203 202 201 200 200 198 198 197 195 194 191 187 176 163 166 164 166 175 174 180 193 201 192 186 210 232 258 261 208 189 209 163 124 84 69 60 56 63 63 60 58 56 57 59
302 299 296 293 291 289 287 285 283 280 276 271 267 263 259 254 248 243 240 240 239 238 236 234 232 231 229 228 227 225 223 221 219 217 217 215 214 212 210 209 208 206 205 205 204 202 201 200 199 198 197 198 197 196 192 187 177 161 160 164 167 176 180 181 187 195 182 172 192 225 250 240 211 207 212 194 172 108 72 64 56 60 64 63 61 58 57 57
298 295 293 291 290 289 288 287 285 283 280 277 272 267 262 258 254 248 242 237 236 236 237 235 232 231 230 228 227 226 224 222 220 218 217 215 214 214 211 210 208 207 206 205 205 203 201 199 199 198 197 198 198 196 192 188 177 160 159 167 170 174 180 181 181 187 179 171 190 216 240 230 214 216 214 209 192 151 80 66 59 60 63 63 63 61 58 57
295 292 289 288 287 287 287 285 284 283 282 279 275 271 266 261 257 252 247 240 235 232 234 235 233 231 230 228 227 226 225 223 221 219 217 215 214 214 213 211 209 207 206 206 206 204 202 199 198 199 197 198 198 196 193 188 176 164 168 175 172 170 177 182 176 177 176 175 189 206 229 228 220 222 221 218 206 178 101 68 60 61 63 63 63 62 60 58
294 291 289 286 285 283 283 281 280 280 280 280 277 273 269 265 260 255 251 245 238 232 230 232 233 231 229 228 227 226 225 224 222 220 218 216 214 214 214 212 209 208 206 205 206 205 202 199 198 199 198 198 198 196 193 188 177 169 172 178 175 171 177 181 172 169 172 178 193 206 222 227 222 218 218 216 210 198 149 83 65 60 64 64 62 61 60 57
296 293 290 286 284 281 279 278 277 276 275 276 276 273 270 266 263 258 254 249 244 237 230 228 230 231 230 228 227 226 225 224 223 221 219 217 214 214 214 213 210 208 207 206 206 205 202 200 199 199 198 198 198 197 194 190 181 171 171 178 177 176 181 180 174 174 178 188 199 207 216 221 223 220 215 219 222 214 183 134 88 61 61 65 63 61 59 57
301 298 293 288 284 281 278 275 274 272 271 270 270 270 269 266 263 260 256 252 247 241 235 229 227 229 230 228 227 227 224 224 224 221 220 219 215 214 214 214 212 209 208 207 206 205 203 200 200 200 199 198 198 198 195 193 186 174 171 176 175 179 186 182 177 178 185 195 200 204 208 212 219 220 219 228 234 222 196 185 155 86 70 66 65 62 58 53
305 302 298 294 289 284 280 276 273 270 268 266 264 263 264 264 262 260 257 254 250 245 239 233 228 226 227 228 228 227 224 223 223 220 220 219 216 214 214 214 213 211 209 207 206 205 203 201 200 201 200 200 199 198 196 194 189 179 174 175 176 182 187 182 180 181 187 196 198 201 202 203 207 210 218 225 226 219 198 193 179 127 101 76 69 63 58 51
306 303 300 297 293 289 285 281 277 272 269 265 262 259 258 259 259 258 256 254 251 247 242 237 231 226 224 225 227 227 224 222 222 220 219 220 218 215 214 214 213 212 210 208 207 205 203 201 201 202 200 201 200 199 196 194 191 184 178 178 179 184 186 185 185 185 192 198 199 201 201 201 202 207 216 211 211 213 194 190 187 158 149 119 90 69 58 50
308 305 302 299 295 292 288 284 280 276 271 266 262 258 255 254 254 255 254 252 250 247 243 238 234 228 223 222 225 226 224 222 221 219 218 219 219 216 214 214 214 213 211 209 207 205 203 202 202 202 201 200 200 199 197 195 193 187 183 181 181 185 187 185 185 186 194 198 197 200 200 200 201 208 212 206 213 214 192 192 197 184 178 168 137 90 62 50
311 308 305 302 298 294 290 286 281 276 272 267 262 257 254 252 250 250 250 249 247 245 242 238 235 230 225 222 223 225 225 223 220 218 217 217 218 217 215 214 214 214 212 210 208 206 204 203 203 203 202 200 200 200 197 196 195 191 188 183 181 185 185 184 182 182 189 195 197 201 201 199 200 208 210 207 216 214 201 203 205 200 192 186 179 145 82 52
314 311 307 304 301 297 292 287 282 276 271 265 260 255 251 249 247 246 245 245 244 242 240 237 234 231 226 223 222 222 225 225 222 219 217 217 217 217 216 214 213 213 213 211 208 207 205 204 204 204 203 200 200 201 199 197 196 195 194 188 183 183 185 186 185 182 185 191 196 197 197 197 199 208 212 209 212 209 210 218 211 208 202 196 196 183 141 60
315 312 309 306 302 298 294 288 282 276 269 263 257 252 247 245 243 242 241 240 240 239 237 236 234 232 228 224 222 220 222 225 223 219 218 217 217 217 217 215 213 213 213 211 209 208 206 205 205 205 204 202 201 202 201 198 196 196 197 194 187 187 190 190 187 185 184 187 192 191 192 196 198 204 211 215 215 210 213 222 216 211 207 205 204 197 185 132
317 314 311 307 304 299 294 289 282 275 267 260 254 248 244 241 239 238 237 237 236 236 234 233 232 231 228 225 222 219 220 223 222 219 217 217 217 217 217 216 214 213 213 212 210 208 207 206 206 205 204 203 203 204 202 199 196 196 198 197 193 193 196 193 189 188 184 186 191 190 192 195 195 202 210 215 217 214 213 216 215 212 209 209 211 212 210 207
320 317 313 309 305 301 295 289 281 274 266 258 251 245 241 237 235 234 233 232 233 232 231 230 230 229 228 226 223 219 219 221 222 219 216 216 216 216 217 217 215 213 213 213 211 208 207 207 206 206 205 204 205 205 202 200 199 198 199 199 199 200 200 197 195 188 182 189 194 191 193 193 191 199 208 212 213 210 209 212 212 212 213 212 214 222 227 227
324 320 316 312 307 302 296 289 281 273 264 255 248 242 238 234 232 230 229 228 228 228 228 227 226 226 225 225 223 220 219 220 221 220 216 216 216 215 215 216 215 214 213 213 212 209 208 208 207 207 206 205 205 203 201 202 201 200 200 200 202 203 202 201 200 193 187 192 198 196 193 190 190 198 206 209 209 206 206 210 212 214 218 218 216 223 234 239
326 323 319 314 309 304 297 289 281 272 263 255 247 241 236 232 229 227 225 224 224 225 225 224 223 223 223 222 221 220 219 218 219 220 217 216 216 215 214 215 215 214 213 212 212 210 209 208 208 208 207 206 205 203 202 203 203 201 200 201 202 204 203 201 200 198 195 193 197 200 197 195 195 199 205 206 204 206 208 213 217 218 218 217 219 224 231 239
329 325 321 316 311 305 298 290 281 271 262 253 246 239 234 230 228 225 222 221 220 221 222 221 221 221 221 220 220 219 218 217 217 218 217 215 216 216 214 214 215 215 214 212 211 211 210 209 209 208 208 207 206 203 202 204 204 202 201 200 202 204 204 203 199 199 200 196 195 198 198 202 202 200 204 205 203 207 212 218 221 220 219 215 218 223 227 234
331 327 323 318 313 307 299 290 280 270 260 251 244 238 233 229 227 224 221 219 218 218 219 218 218 218 219 218 219 219 218 217 216 216 216 214 215 216 214 213 214 214 214 212 211 211 211 210 209 209 209 208 207 204 202 204 205 204 202 200 202 203 204 204 202 201 201 197 195 196 197 202 205 206 207 206 207 210 212 214 215 219 226 222 213 214 225 231
332 329 325 320 315 307 299 289 278 267 257 248 242 236 232 228 225 223 220 218 217 217 217 216 216 217 217 217 218 219 218 218 217 216 215 214 215 215 214 213 213 213 213 212 210 211 212 211 210 209 210 209 208 205 203 204 206 206 204 202 202 203 205 205 203 202 201 198 195 196 198 200 201 206 208 205 206 209 210 210 211 219 227 223 211 209 227 235
334 331 327 322 317 309 300 287 274 262 253 246 239 234 230 226 224 222 220 218 216 216 215 215 215 215 216 216 217 217 217 218 218 217 215 214 214 215 214 213 213 212 213 212 211 211 212 212 210 210 210 211 209 206 204 203 205 206 206 204 202 203 206 207 203 200 201 200 198 196 198 199 197 200 205 204 203 205 208 211 214 220 224 219 212 209 224 234
335 332 329 325 319 311 300 285 271 258 248 243 238 232 229 225 222 221 219 218 217 216 214 214 214 214 215 215 216 216 217 218 218 217 216 215 214 214 214 213 213 212 212 212 212 211 212 212 211 210 210 211 210 208 205 204 204 206 207 206 204 204 205 206 203 199 200 202 203 200 197 198 197 196 201 205 203 201 204 210 214 217 218 215 212 211 218 226
337 334 331 326 321 314 302 286 272 258 248 242 237 232 227 224 221 219 218 217 217 216 215 214 213 213 214 214 215 216 216 217 217 217 216 215 214 214 214 213 213 212 212 212 212 213 212 212 212 211 211 211 211 209 206 205 205 206 207 207 207 206 205 205 201 198 200 203 206 205 199 197 194 193 199 202 201 200 203 208 211 213 215 214 213 213 215 219
339 336 332 328 323 318 308 294 280 265 253 244 237 232 228 225 222 219 218 217 216 215 215 214 213 213 214 214 214 215 216 217 217 216 216 214 213 214 215 214 213 212 211 211 212 213 213 212 212 212 211 211 211 209 207 206 205 205 207 208 208 207 205 205 201 197 199 201 203 204 202 199 193 191 196 199 198 200 204 205 207 213 218 218 216 212 210 213
340 338 333 328 325 323 316 307 292 276 263 250 241 235 230 227 224 221 220 218 217 215 215 214 214 213 214 214 214 215 216 217 217 216 216 215 213 213 214 214 213 212 211 210 211 212 213 212 212 212 212 212 212 210 207 206 206 205 207 208 209 209 206 205 203 199 199 200 201 204 204 202 198 194 197 200 198 200 202 204 208 216 221 219 216 212 207 208
341 339 333 328 327 326 322 315 303 287 273 258 247 238 231 228 226 224 222 220 218 216 215 214 214 214 214 214 214 215 216 217 217 217 216 216 214 213 213 214 213 212 212 211 211 212 212 212 211 211 212 213 212 211 209 208 207 206 207 209 210 210 207 207 206 202 201 201 201 204 204 203 203 202 202 205 204 201 202 203 207 217 219 214 214 213 207 208
342 339 333 329 327 325 320 314 305 294 280 265 251 241 233 229 226 225 223 222 220 218 217 215 214 214 214 214 214 215 215 216 217 217 215 215 214 212 212 212 212 212 212 212 211 212 212 212 211 211 212 213 213 212 210 209 208 207 208 209 210 211 209 208 208 205 204 204 204 206 207 205 205 207 207 208 209 207 205 204 207 215 216 212 216 215 207 208
343 340 333 328 326 324 319 318 314 299 282 266 252 243 235 230 228 227 225 224 221 219 218 216 215 214 214 214 214 214 215 216 216 217 215 214 213 211 211 211 211 210 210 211 211 212 212 212 212 211 211 212 213 212 210 209 209 209 208 209 210 212 211 211 210 209 208 207 207 209 210 208 208 210 209 210 212 211 208 208 207 209 212 215 218 214 207 209
343 340 332 326 324 322 321 326 325 307 283 262 247 238 233 231 231 230 229 227 224 221 220 218 216 215 215 215 214 214 214 215 216 216 215 214 213 211 210 210 211 210 209 210 211 212 212 213 213 211 211 211 212 212 211 210 210 210 209 209 210 211 212 212 213 213 212 211 210 211 211 211 211 212 210 210 213 213 211 212 210 205 209 213 210 206 204 202
344 340 332 324 319 315 317 325 323 305 279 259 245 238 235 234 234 234 234 232 229 225 222 220 218 216 215 215 214 214 214 215 215 216 215 214 213 211 210 210 210 210 209 209 210 211 212 213 213 212 211 211 212 213 212 211 211 211 210 210 210 211 212 213 214 215 214 213 213 214 213 212 213 214 212 211 214 214 213 215 215 212 211 211 206 204 201 196
343 341 332 322 315 312 316 321 317 302 281 266 255 247 243 241 240 240 239 239 237 232 227 223 221 219 218 216 215 214 214 214 215 216 216 215 213 212 211 211 211 210 210 209 210 210 211 212 213 213 212 211 212 212 212 212 211 211 211 210 210 211 213 214 215 216 215 213 213 215 215 214 214 215 214 212 213 215 215 216 218 219 217 214 212 210 203 196
343 341 333 323 315 313 315 316 312 299 281 271 262 258 257 254 252 248 244 243 242 238 233 228 225 222 220 219 217 216 214 214 214 214 215 215 214 213 212 212 211 211 211 210 210 211 211 212 213 213 213 213 212 212 212 212 212 212 212 211 211 212 213 215 216 217 215 213 214 215 215 215 216 216 216 214 213 214 217 219 221 222 221 217 215 213 206 201
342 339 333 324 315 310 310 311 307 299 289 281 276 276 277 275 270 262 251 244 241 239 236 232 228 224 222 220 218 217 215 215 214 214 214 215 214 213 213 212 211 211 212 211 211 211 212 212 212 212 213 214 213 213 212 212 212 213 213 212 212 213 214 216 217 217 216 214 214 216 216 216 216 217 218 217 216 214 216 221 223 224 224 220 215 212 209 207
343 338 331 325 319 315 315 315 314 315 308 297 292 293 296 293 287 279 266 252 242 237 235 233 230 226 223 221 219 217 217 217 216 215 215 216 215 214 212 212 211 212 212 212 212 211 212 212 212 212 213 214 214 214 213 213 213 213 213 213 213 214 215 216 217 218 216 215 215 215 216 217 216 217 218 219 218 217 217 220 222 223 224 222 216 213 212 210
344 339 331 326 324 322 324 324 321 319 311 302 300 303 305 302 298 291 279 264 248 236 231 229 227 225 224 222 219 218 219 219 218 218 218 218 217 215 214 212 212 212 212 212 212 212 212 213 212 212 213 213 214 214 214 214 214 213 213 214 214 214 215 216 218 218 217 215 215 215 216 217 216 216 217 218 219 218 218 219 220 221 223 222 217 215 214 212
344 340 331 328 325 320 320 322 318 314 309 307 309 313 315 313 309 303 292 275 256 238 229 226 224 223 223 221 218 218 220 220 218 218 219 220 218 216 215 213 213 212 212 212 213 212 212 213 213 212 213 213 214 214 215 215 214 214 215 215 214 214 215 216 218 218 216 216 216 216 216 217 218 216 217 219 220 218 219 221 220 220 223 222 217 214 213 212
343 340 333 328 325 319 316 314 311 310 315 316 318 322 324 322 319 314 303 286 264 244 230 224 222 221 221 219 217 216 218 219 217 215 216 218 218 216 215 214 214 213 212 212 213 212 212 213 213 212 212 213 213 214 214 215 215 215 216 216 216 215 215 216 218 217 216 215 216 217 217 218 218 218 218 220 221 220 219 221 220 219 221 221 218 213 211 211
341 340 335 331 326 320 315 314 312 313 321 324 325 329 330 329 328 323 313 295 271 249 232 223 219 218 217 216 216 215 215 217 217 214 213 215 216 216 214 214 214 214 213 213 213 213 212 213 213 212 212 213 214 214 214 215 215 216 217 217 217 217 216 216 217 217 216 215 215 217 218 219 219 219 219 219 221 221 219 221 221 219 220 222 219 215 212 210
339 338 336 332 326 319 313 315 315 313 318 327 329 332 333 334 335 332 324 308 281 253 234 222 217 215 215 213 213 213 213 215 215 214 213 214 214 215 214 214 214 214 214 214 214 214 213 212 213 212 212 213 214 214 215 215 215 216 218 218 218 218 217 217 217 217 217 216 215 216 218 219 219 220 219 219 220 220 219 221 223 221 220 221 220 217 215 212
338 337 333 327 321 315 311 315 316 311 317 328 332 334 336 338 341 341 336 323 297 259 234 222 214 213 213 212 212 212 212 213 214 213 213 213 213 214 213 213 214 214 215 215 215 214 214 213 213 212 212 213 214 214 215 216 216 216 218 219 218 218 219 218 218 218 217 217 216 216 217 219 220 220 220 220 220 221 221 221 223 223 221 220 220 219 218 215
335 335 330 322 316 311 308 314 317 314 318 327 332 335 339 343 347 348 346 337 317 278 239 222 212 209 211 212 212 211 210 212 213 213 213 213 213 213 212 213 214 214 214 215 215 215 215 214 213 213 212 213 214 214 215 216 217 218 219 219 219 219 219 219 219 219 219 218 217 217 218 218 220 220 221 221 221 222 222 222 223 223 222 219 219 220 219 217
334 333 329 321 314 307 304 311 317 316 316 324 332 337 341 345 351 354 353 347 335 306 256 223 211 207 207 209 210 210 210 210 212 213 212 212 212 213 212 212 214 214 214 215 216 216 216 215 213 213 213 213 213 214 215 216 217 219 219 220 220 220 219 219 219 220 220 220 219 218 218 219 220 221 221 221 222 223 224 223 223 225 224 221 220 221 221 220
333 332 328 320 312 303 301 306 314 315 314 322 332 338 342 347 352 357 358 355 347 331 287 230 214 207 205 206 208 209 208 209 211 212 211 210 211 212 212 212 213 214 214 215 215 216 216 216 214 213 213 213 213 214 215 216 217 219 219 219 220 221 220 219 219 220 220 220 220 219 219 219 221 222 222 222 222 223 225 225 224 225 226 225 223 223 223 223
332 331 327 320 310 300 295 299 309 313 313 321 332 337 342 348 353 358 1 360 356 347 323 255 218 208 204 203 205 207 207 208 210 211 211 210 210 211 212 211 212 214 214 215 215 215 216 217 215 213 213 213 214 214 215 216 218 219 220 219 219 221 221 220 219 220 221 221 220 220 219 219 220 222 223 223 223 223 225 226 226 225 226 228 227 226 225 225
331 330 327 320 309 299 292 293 305 312 312 320 331 337 341 348 353 358 2 3 0 354 343 309 230 209 204 203 202 204 206 208 210 211 210 209 210 211 212 211 211 213 214 215 215 214 216 217 216 214 213 213 213 215 216 217 218 219 220 220 220 220 221 221 219 220 221 221 220 220 220 220 220 221 222 224 224 224 225 227 227 227 227 228 229 228 227 227
330 329 326 319 310 301 292 287 299 308 310 318 330 336 341 348 353 356 0 4 4 359 351 334 279 219 207 205 204 203 204 208 210 211 211 210 210 211 212 212 212 213 214 214 215 215 216 217 216 214 213 213 213 214 216 217 219 219 220 220 220 221 221 221 220 220 220 221 221 221 221 221 221 221 221 222 224 225 226 227 228 228 228 228 228 229 229 229
329 328 324 318 308 300 290 283 292 302 305 314 329 335 340 347 352 355 358 1 4 3 356 343 321 262 210 205 205 204 205 206 207 209 210 210 210 211 212 212 212 213 213 214 215 215 216 217 217 214 213 213 213 214 216 217 219 219 220 220 220 221 222 222 221 221 221 221 220 220 220 221 221 221 222 222 222 224 226 227 228 228 229 229 229 229 230 230
Height
10916 10915 10914 10913 10913 10912 10911 10910 10910 10909 10909 10908 10908 10909 10909 10910 10911 10912 10914 10915 10917 10918 10920 10921 10923 10925 10927 10930 10932 10935 10937 10940 10943 10947 10949 10951 10955 10957 10958 10961 10965 10970 10973 10976 10979 10983 10986 10989 10993 10996 10999 11002 11005 11007 11010 11012 11014 11017 11019 11020 11022 11024 11026 11027 11028 11028 11028 11028 11028 11028 11027 11026 11025 11024 11024 11024 11023 11021 11020 11019 11017 11015 11014 11013 11012 11011 11010 11009
10912 10912 10911 10910 10909 10909 10908 10907 10906 10906 10905 10905 10905 10905 10905 10906 10907 10908 10909 10911 10913 10914 10915 10917 10919 10921 10923 10925 10928 10930 10933 10936 10940 10943 10944 10948 10951 10953 10954 10958 10963 10966 10970 10973 10976 10980 10982 10986 10990 10994 10997 11000 11003 11006 11009 11011 11013 11016 11018 11020 11021 11023 11025 11026 11027 11028 11029 11029 11029 11029 11029 11027 11027 11026 11026 11025 11024 11022 11022 11021 11019 11017 11016 11014 11013 11012 11012 11010
10910 10908 10907 10906 10905 10904 10904 10903 10903 10902 10902 10902 10901 10901 10902 10902 10903 10904 10905 10906 10908 10909 10911 10912 10914 10916 10918 10920 10923 10926 10929 10932 10936 10938 10941 10945 10947 10948 10951 10955 10959 10963 10966 10970 10973 10976 10979 10983 10987 10991 10995 10998 11002 11004 11007 11010 11012 11015 11018 11020 11021 11023 11024 11025 11027 11028 11028 11029 11029 11030 11029 11028 11028 11027 11027 11026 11025 11024 11023 11023 11021 11019 11017 11016 11015 11014 11013 11012
10907 10905 10904 10903 10902 10900 10899 10899 10898 10898 10898 10898 10897 10897 10898 10898 10899 10900 10900 10902 10903 10905 10906 10908 10909 10911 10913 10916 10918 10921 10924 10927 10931 10934 10937 10940 10942 10944 10948 10951 10955 10959 10963 10966 10969 10972 10975 10979 10984 10988 10992 10997 11000 11003 11006 11009 11012 11015 11017 11019 11020 11022 11023 11024 11026 11026 11027 11029 11029 11030 11029 11029 11028 11027 11027 11027 11026 11025 11025 11024 11023 11021 11019 11018 11017 11016 11015 11014
10903 10902 10900 10899 10897 10896 10895 10894 10894 10894 10894 10893 10893 10893 10893 10894 10895 10896 10896 10897 10898 10900 10901 10903 10905 10906 10908 10911 10913 10916 10918 10922 10926 10929 10933 10936 10938 10941 10944 10947 10951 10955 10959 10962 10965 10968 10972 10976 10981 10986 10990 10995 10998 11001 11004 11008 11011 11014 11016 11018 11019 11020 11021 11023 11025 11024 11025 11027 11028 11028 11029 11029 11028 11027 11027 11028 11027 11026 11026 11025 11024 11022 11021 11020 11019 11018 11017 11016
10901 10899 10897 10895 10893 10892 10890 10890 10889 10889 10889 10888 10888 10888 10889 10889 10890 10891 10891 10892 10893 10895 10896 10898 10900 10901 10903 10906 10908 10910 10913 10917 10921 10925 10929 10932 10934 10937 10940 10944 10947 10951 10955 10958 10961 10965 10969 10973 10978 10983 10988 10993 10995 10998 11002 11006 11010 11012 11014 11016 11018 11019 11020 11021 11024 11024 11024 11024 11024 11027 11029 11029 11028 11027 11027 11028 11028 11028 11027 11026 11026 11024 11023 11021 11021 11020 11019 11018
10897 10895 10893 10891 10889 10888 10886 10885 10884 10884 10883 10883 10883 10883 10884 10885 10885 10886 10886 10887 10888 10890 10891 10893 10895 10896 10898 10900 10902 10905 10908 10912 10916 10920 10923 10927 10930 10933 10936 10939 10943 10947 10951 10955 10958 10961 10966 10970 10975 10980 10985 10990 10992 10995 11000 11005 11008 11010 11012 11014 11016 11018 11019 11021 11023 11024 11023 11022 11022 11025 11028 11029 11028 11028 11028 11028 11029 11029 11028 11027 11027 11025 11024 11023 11022 11022 11021 11020
10892 10890 10888 10886 10885 10883 10882 10880 10879 10879 10878 10878 10878 10878 10878 10879 10880 10881 10881 10882 10883 10885 10886 10887 10889 10890 10892 10894 10896 10899 10903 10906 10910 10914 10917 10922 10925 10928 10932 10934 10939 10943 10947 10951 10955 10958 10962 10967 10972 10976 10981 10985 10988 10993 10998 11002 11006 11008 11010 11011 11013 11015 11018 11020 11022 11023 11023 11023 11022 11024 11027 11028 11028 11028 11028 11029 11029 11029 11028 11028 11028 11027 11025 11025 11024 11024 11023 11022
10886 10884 10882 10880 10879 10877 10876 10875 10874 10873 10872 10872 10872 10872 10873 10873 10874 10874 10876 10877 10878 10880 10881 10882 10883 10884 10886 10888 10890 10893 10897 10900 10904 10908 10912 10917 10920 10924 10927 10930 10935 10939 10943 10947 10951 10954 10958 10963 10968 10972 10977 10981 10986 10992 10996 11000 11003 11005 11007 11009 11010 11013 11016 11019 11021 11022 11023 11023 11022 11023 11026 11027 11028 11029 11029 11029 11029 11029 11029 11028 11028 11028 11027 11026 11025 11025 11024 11024
10880 10877 10876 10874 10872 10871 10869 10868 10867 10867 10866 10865 10866 10866 10866 10867 10867 10868 10869 10871 10873 10874 10875 10876 10877 10878 10880 10882 10885 10887 10890 10894 10898 10903 10907 10911 10916 10919 10923 10926 10931 10934 10938 10942 10946 10949 10954 10960 10965 10969 10974 10979 10984 10990 10995 10999 11001 11002 11004 11007 11009 11011 11013 11016 11020 11023 11023 11023 11022 11023 11025 11027 11028 11029 11029 11029 11028 11029 11029 11029 11029 11029 11028 11027 11027 11026 11026 11025
10872 10870 10868 10866 10865 10863 10862 10860 10859 10859 10858 10858 10858 10859 10859 10860 10860 10861 10862 10864 10866 10868 10869 10870 10871 10873 10874 10876 10878 10881 10885 10888 10891 10898 10902 10906 10911 10915 10918 10922 10926 10930 10933 10937 10940 10945 10952 10958 10962 10966 10971 10975 10980 10986 10992 10996 10998 11000 11002 11004 11007 11009 11011 11014 11018 11021 11022 11022 11021 11022 11023 11025 11027 11028 11029 11029 11028 11029 11029 11029 11029 11029 11028 11028 11028 11027 11027 11026
10864 10862 10859 10857 10855 10854 10852 10851 10851 10850 10850 10850 10850 10851 10851 10852 10853 10854 10855 10857 10859 10861 10863 10864 10865 10866 10867 10870 10873 10875 10879 10881 10885 10892 10896 10900 10905 10909 10913 10917 10921 10925 10928 10932 10937 10942 10949 10955 10958 10962 10965 10970 10975 10980 10985 10990 10993 10997 10999 11002 11003 11004 11007 11011 11014 11016 11020 11020 11018 11019 11021 11023 11026 11026 11028 11028 11028 11029 11029 11029 11029 11029 11028 11028 11028 11028 11028 11027
10855 10852 10850 10847 10845 10843 10842 10841 10840 10840 10840 10840 10840 10841 10842 10843 10845 10846 10848 10849 10851 10853 10856 10858 10859 10860 10861 10865 10867 10867 10870 10873 10877 10885 10890 10894 10899 10904 10908 10912 10916 10920 10923 10927 10932 10939 10945 10951 10954 10956 10960 10964 10968 10973 10979 10985 10990 10994 10996 10998 11000 11001 11004 11008 11010 11012 11014 11016 11016 11017 11020 11023 11024 11024 11026 11027 11028 11028 11028 11029 11029 11029 11028 11028 11028 11028 11028 11027
10845 10842 10839 10837 10834 10832 10830 10829 10829 10829 10829 10829 10829 10830 10832 10833 10835 10838 10840 10841 10843 10845 10847 10849 10851 10852 10855 10859 10858 10858 10862 10865 10870 10878 10884 10888 10893 10898 10903 10907 10911 10915 10918 10923 10928 10934 10940 10945 10947 10950 10954 10959 10963 10970 10977 10983 10988 10991 10992 10994 10996 10999 11002 11005 11008 11010 11011 11014 11016 11017 11019 11022 11023 11024 11025 11026 11027 11028 11028 11029 11029 11029 11029 11028 11028 11028 11028 11027
10836 10832 10829 10826 10823 10820 10818 10817 10816 10816 10816 10816 10817 10818 10820 10823 10825 10828 10830 10833 10835 10836 10838 10840 10842 10845 10849 10850 10849 10851 10855 10858 10864 10872 10877 10881 10886 10892 10897 10900 10905 10909 10913 10918 10924 10930 10935 10939 10941 10945 10949 10954 10960 10967 10973 10979 10983 10987 10988 10990 10993 10997 11000 11003 11006 11008 11010 11013 11015 11017 11018 11020 11022 11024 11024 11025 11026 11027 11027 11028 11029 11029 11029 11029 11029 11029 11028 11028
10825 10820 10816 10813 10810 10807 10805 10803 10802 10802 10802 10802 10804 10806 10808 10811 10814 10817 10819 10822 10824 10826 10828 10830 10833 10837 10840 10842 10843 10846 10849 10852 10858 10865 10870 10874 10879 10885 10890 10895 10900 10904 10908 10914 10919 10925 10929 10933 10936 10940 10944 10950 10956 10962 10969 10974 10979 10983 10985 10987 10991 10994 10997 11000 11004 11007 11009 11012 11013 11015 11017 11019 11021 11022 11023 11024 11025 11026 11027 11027 11028 11028 11029 11029 11029 11029 11029 11028
10813 10807 10803 10798 10794 10792 10789 10787 10786 10786 10786 10788 10789 10792 10795 10798 10801 10804 10807 10810 10813 10816 10818 10821 10824 10827 10831 10835 10838 10842 10845 10847 10853 10860 10864 10868 10872 10878 10883 10888 10893 10897 10902 10908 10914 10918 10923 10927 10931 10934 10939 10946 10951 10957 10963 10967 10972 10977 10980 10984 10988 10991 10993 10996 11001 11004 11007 11009 11011 11013 11015 11016 11019 11020 11021 11023 11024 11025 11026 11026 11027 11028 11028 11029 11029 11029 11029 11029
10799 10793 10788 10783 10778 10775 10772 10770 10769 10769 10770 10771 10773 10776 10780 10783 10787 10790 10794 10798 10802 10806 10809 10812 10815 10819 10824 10828 10832 10837 10840 10841 10846 10854 10859 10862 10866 10871 10876 10881 10886 10892 10897 10902 10907 10912 10917 10922 10926 10930 10936 10943 10948 10951 10954 10959 10966 10972 10975 10980 10985 10987 10990 10994 10998 11002 11004 11005 11006 11009 11012 11014 11016 11018 11020 11022 11023 11024 11025 11025 11026 11027 11028 11029 11029 11029 11029 11029
10784 10777 10772 10766 10761 10758 10755 10753 10751 10751 10752 10754 10757 10760 10764 10768 10772 10776 10781 10787 10791 10795 10798 10802 10806 10811 10817 10821 10825 10831 10833 10833 10837 10845 10851 10854 10859 10865 10870 10876 10881 10886 10891 10896 10901 10906 10912 10917 10921 10926 10932 10938 10941 10943 10948 10957 10964 10968 10972 10976 10980 10984 10987 10992 10996 10999 11001 11003 11003 11006 11009 11011 11013 11016 11018 11019 11021 11022 11023 11024 11025 11026 11027 11028 11029 11029 11029 11029
10769 10762 10755 10750 10745 10741 10738 10735 10734 10734 10736 10738 10741 10744 10749 10753 10757 10762 10769 10774 10779 10783 10788 10793 10798 10803 10809 10812 10818 10823 10824 10826 10830 10836 10842 10846 10850 10857 10863 10869 10875 10880 10885 10889 10895 10901 10907 10912 10916 10920 10924 10929 10932 10936 10946 10955 10960 10963 10967 10972 10976 10980 10984 10988 10993 10998 11002 11002 11002 11004 11006 11008 11011 11014 11015 11017 11018 11019 11021 11022 11024 11025 11026 11027 11028 11029 11029 11029
10755 10746 10739 10733 10728 10725 10722 10720 10719 10719 10721 10723 10726 10730 10734 10738 10742 10748 10755 10761 10766 10771 10777 10783 10788 10794 10800 10805 10812 10815 10817 10820 10824 10828 10835 10839 10843 10849 10855 10860 10867 10873 10877 10882 10889 10897 10902 10906 10909 10912 10916 10921 10925 10933 10943 10949 10953 10958 10963 10968 10972 10976 10980 10984 10990 10995 10999 11001 11002 11002 11004 11006 11009 11012 11013 11015 11016 11017 11019 11021 11023 11025 11026 11027 11028 11028 11029 11029
10740 10732 10725 10719 10714 10711 10708 10707 10706 10706 10708 10711 10714 10717 10721 10725 10729 10735 10742 10748 10754 10759 10766 10773 10779 10786 10791 10797 10802 10805 10808 10813 10816 10821 10827 10832 10835 10841 10847 10853 10859 10864 10869 10877 10885 10892 10896 10899 10901 10905 10910 10915 10921 10930 10938 10942 10947 10954 10960 10965 10968 10971 10975 10980 10984 10986 10989 10995 10999 11001 11003 11005 11007 11010 11012 11013 11014 11016 11018 11020 11021 11023 11025 11026 11026 11027 11028 11029
10727 10719 10712 10707 10703 10700 10697 10696 10695 10696 10698 10700 10703 10706 10710 10714 10718 10724 10730 10736 10742 10748 10755 10763 10771 10776 10781 10788 10792 10794 10798 10804 10808 10812 10818 10824 10827 10832 10840 10846 10851 10857 10864 10873 10880 10885 10888 10889 10893 10899 10904 10909 10916 10924 10932 10937 10943 10950 10955 10961 10964 10968 10971 10975 10979 10980 10982 10989 10995 10997 11001 11003 11005 11008 11009 11010 11012 11014 11016 11018 11020 11022 11023 11024 11025 11025 11026 11027
10715 10708 10702 10697 10693 10690 10688 10687 10686 10687 10689 10692 10694 10697 10701 10704 10708 10714 10719 10726 10731 10738 10745 10754 10761 10766 10773 10780 10783 10786 10792 10796 10800 10804 10809 10816 10819 10824 10833 10838 10842 10850 10858 10866 10872 10876 10878 10881 10887 10893 10897 10902 10910 10918 10927 10933 10938 10944 10950 10955 10960 10964 10967 10970 10974 10977 10980 10986 10991 10995 10998 11001 11003 11005 11007 11008 11010 11012 11014 11016 11018 11020 11022 11023 11024 11024 11025 11026
10705 10699 10693 10689 10686 10683 10681 10680 10679 10680 10682 10684 10687 10690 10693 10696 10700 10705 10711 10716 10722 10729 10736 10744 10751 10757 10764 10770 10774 10779 10785 10789 10793 10796 10801 10808 10811 10816 10823 10829 10835 10842 10850 10856 10863 10867 10869 10875 10882 10888 10892 10897 10904 10914 10922 10927 10933 10939 10945 10949 10953 10958 10961 10965 10969 10972 10976 10980 10985 10990 10995 10998 11001 11003 11004 11006 11008 11010 11012 11014 11016 11018 11020 11022 11022 11023 11024 11025
10697 10691 10686 10682 10679 10677 10675 10674 10674 10675 10676 10678 10680 10683 10686 10690 10694 10698 10703 10709 10714 10719 10727 10735 10741 10748 10754 10761 10766 10771 10776 10780 10784 10789 10795 10801 10804 10808 10815 10821 10827 10834 10840 10847 10854 10859 10862 10870 10877 10882 10886 10891 10899 10908 10915 10921 10928 10934 10938 10942 10947 10951 10955 10959 10963 10968 10971 10975 10979 10984 10989 10994 10997 10999 11001 11003 11005 11007 11009 11011 11013 11016 11018 11020 11021 11022 11023 11024
10691 10685 10680 10677 10674 10672 10671 10670 10670 10671 10672 10673 10676 10678 10681 10684 10688 10692 10696 10701 10706 10711 10718 10725 10731 10738 10745 10752 10757 10761 10766 10770 10775 10782 10788 10793 10797 10802 10808 10813 10819 10826 10833 10840 10848 10852 10857 10864 10870 10876 10880 10886 10894 10901 10908 10916 10922 10926 10931 10937 10942 10945 10948 10952 10958 10964 10968 10972 10975 10979 10984 10988 10992 10995 10996 10999 11002 11004 11006 11009 11011 11013 11016 11018 11019 11020 11022 11024
10686 10680 10676 10673 10670 10668 10667 10667 10667 10667 10669 10670 10672 10675 10677 10680 10683 10686 10689 10693 10698 10705 10711 10716 10723 10730 10737 10741 10746 10752 10757 10761 10766 10773 10779 10784 10790 10796 10800 10805 10811 10819 10827 10837 10843 10846 10851 10858 10864 10869 10874 10880 10886 10893 10902 10909 10914 10920 10926 10932 10936 10938 10941 10946 10953 10960 10964 10967 10970 10974 10979 10983 10987 10991 10993 10996 10999 11002 11004 11007 11008 11011 11014 11016 11018 11019 11021 11023
10682 10677 10672 10670 10667 10666 10665 10665 10665 10665 10666 10668 10670 10672 10674 10676 10678 10681 10684 10687 10692 10698 10704 10710 10717 10723 10727 10731 10738 10743 10748 10752 10758 10765 10772 10777 10783 10788 10792 10798 10804 10812 10822 10830 10834 10838 10844 10851 10856 10863 10868 10872 10876 10883 10893 10900 10906 10914 10919 10923 10926 10930 10936 10943 10948 10953 10957 10961 10965 10970 10975 10979 10984 10987 10990 10994 10997 11000 11003 11005 11007 11009 11012 11014 11016 11018 11020 11022
10679 10674 10670 10667 10665 10664 10663 10663 10663 10664 10665 10666 10667 10669 10670 10673 10675 10677 10679 10682 10687 10692 10697 10702 10708 10714 10719 10725 10732 10736 10741 10746 10752 10759 10766 10771 10776 10780 10786 10792 10798 10806 10813 10818 10822 10828 10834 10841 10848 10855 10860 10864 10867 10875 10886 10892 10899 10906 10910 10914 10917 10922 10930 10936 10941 10946 10952 10957 10962 10967 10972 10976 10980 10984 10987 10991 10993 10997 11000 11003 11004 11006 11009 11012 11014 11016 11019 11020
10676 10672 10668 10665 10663 10662 10662 10662 10662 10662 10663 10664 10665 10666 10667 10669 10671 10673 10675 10678 10682 10686 10690 10695 10701 10706 10712 10718 10723 10727 10734 10741 10746 10753 10759 10763 10768 10773 10780 10786 10790 10797 10804 10809 10814 10817 10821 10829 10838 10845 10851 10855 10860 10870 10880 10886 10893 10899 10903 10907 10911 10916 10924 10930 10936 10943 10949 10953 10958 10962 10967 10972 10976 10980 10983 10986 10989 10993 10996 10999 11001 11004 11007 11010 11012 11015 11017 11019
10674 10669 10666 10664 10662 10661 10661 10661 10661 10661 10661 10662 10662 10663 10664 10666 10667 10669 10671 10673 10677 10681 10684 10689 10694 10699 10704 10709 10714 10721 10729 10734 10738 10743 10748 10752 10758 10765 10771 10774 10779 10787 10794 10799 10802 10805 10811 10820 10828 10834 10841 10847 10854 10864 10873 10880 10887 10892 10897 10903 10907 10912 10920 10927 10934 10942 10946 10948 10952 10956 10960 10966 10971 10975 10978 10981 10985 10989 10993 10995 10998 11001 11004 11008 11011 11014 11016 11018
10672 10667 10664 10662 10661 10660 10660 10660 10660 10660 10660 10660 10661 10661 10662 10663 10664 10665 10667 10669 10672 10675 10678 10683 10688 10692 10697 10702 10708 10716 10721 10725 10728 10732 10738 10743 10748 10754 10758 10761 10767 10773 10779 10784 10791 10797 10805 10812 10818 10826 10834 10841 10849 10858 10867 10874 10880 10885 10891 10897 10903 10909 10917 10925 10931 10938 10940 10941 10945 10949 10955 10961 10967 10971 10975 10978 10981 10985 10989 10991 10993 10998 11002 11007 11011 11014 11018 11021
10670 10666 10663 10661 10660 10659 10659 10659 10658 10658 10658 10659 10659 10659 10660 10661 10662 10663 10664 10665 10667 10670 10672 10676 10681 10686 10690 10696 10702 10707 10710 10714 10718 10723 10729 10735 10739 10742 10747 10750 10753 10758 10765 10774 10782 10790 10797 10804 10811 10820 10828 10836 10843 10851 10861 10868 10873 10879 10885 10891 10897 10904 10912 10919 10925 10930 10932 10935 10940 10945 10952 10959 10964 10968 10971 10974 10977 10981 10984 10987 10990 10996 11001 11006 11010 11012 11016 11021
10668 10664 10661 10659 10658 10658 10657 10657 10657 10657 10657 10657 10657 10658 10658 10659 10659 10660 10661 10661 10663 10665 10667 10670 10674 10679 10683 10688 10693 10698 10702 10707 10711 10715 10719 10724 10726 10730 10733 10734 10737 10745 10756 10765 10772 10780 10789 10796 10804 10813 10823 10832 10838 10845 10855 10861 10865 10870 10876 10884 10891 10898 10903 10910 10914 10915 10918 10927 10935 10941 10948 10955 10959 10963 10965 10967 10971 10975 10979 10983 10988 10994 10998 11001 11004 11006 11011 11017
10666 10662 10660 10658 10656 10655 10655 10655 10655 10655 10655 10655 10655 10656 10656 10656 10657 10657 10658 10658 10658 10660 10662 10665 10669 10673 10677 10681 10685 10690 10695 10700 10703 10707 10710 10713 10715 10718 10720 10723 10731 10742 10752 10759 10765 10773 10782 10789 10798 10809 10819 10825 10830 10838 10845 10851 10856 10861 10867 10876 10884 10890 10896 10898 10899 10900 10908 10920 10930 10935 10944 10950 10953 10956 10959 10962 10966 10970 10975 10980 10984 10989 10993 10997 11000 11003 11009 11012
10663 10660 10659 10656 10655 10653 10653 10653 10653 10653 10653 10653 10653 10653 10653 10653 10653 10654 10655 10654 10653 10654 10657 10661 10665 10667 10670 10674 10677 10682 10688 10690 10692 10694 10697 10700 10704 10709 10714 10723 10735 10744 10750 10757 10764 10771 10779 10785 10796 10808 10813 10817 10823 10830 10836 10843 10849 10854 10862 10871 10877 10883 10887 10888 10891 10896 10907 10920 10928 10934 10940 10944 10948 10950 10953 10957 10963 10969 10975 10978 10980 10984 10988 10992 10995 11000 11004 11005
10661 10658 10657 10655 10654 10653 10652 10651 10651 10651 10651 10651 10651 10650 10649 10649 10649 10649 10649 10649 10648 10649 10651 10654 10657 10659 10662 10664 10667 10673 10678 10679 10680 10683 10686 10689 10695 10703 10713 10724 10735 10741 10746 10753 10760 10768 10775 10781 10791 10799 10803 10810 10819 10824 10830 10837 10842 10850 10860 10866 10870 10875 10877 10879 10884 10891 10902 10915 10923 10928 10933 10938 10943 10947 10950 10955 10961 10968 10973 10974 10975 10979 10983 10987 10991 10996 10999 11000
10660 10656 10654 10653 10652 10651 10650 10649 10648 10648 10648 10648 10648 10647 10646 10644 10644 10643 10642 10642 10642 10643 10645 10647 10649 10651 10653 10655 10659 10665 10668 10669 10673 10677 10680 10684 10693 10703 10713 10722 10730 10735 10740 10747 10754 10761 10768 10774 10782 10789 10794 10804 10812 10817 10825 10831 10837 10846 10851 10854 10860 10867 10869 10873 10878 10884 10896 10909 10916 10921 10927 10932 10937 10941 10945 10951 10959 10965 10968 10968 10970 10974 10978 10982 10987 10992 10994 10994
10658 10654 10652 10650 10649 10648 10647 10647 10646 10646 10646 10645 10644 10643 10642 10640 10638 10637 10635 10634 10635 10636 10637 10637 10640 10642 10644 10647 10655 10660 10661 10662 10669 10677 10681 10687 10697 10706 10712 10717 10723 10727 10732 10740 10748 10754 10760 10765 10774 10783 10791 10799 10805 10812 10820 10826 10832 10838 10839 10843 10852 10857 10860 10866 10870 10876 10888 10899 10906 10913 10918 10922 10927 10933 10939 10946 10952 10956 10958 10961 10964 10968 10972 10977 10981 10986 10989 10990
10656 10653 10650 10648 10647 10646 10645 10645 10645 10644 10644 10643 10641 10640 10638 10635 10633 10631 10628 10627 10626 10628 10629 10629 10631 10634 10636 10642 10650 10653 10654 10657 10665 10674 10680 10687 10695 10701 10706 10711 10716 10720 10726 10733 10739 10745 10751 10757 10765 10776 10784 10791 10798 10805 10812 10818 10824 10829 10832 10838 10842 10844 10850 10856 10857 10864 10879 10891 10899 10905 10909 10913 10919 10928 10936 10941 10945 10949 10952 10955 10959 10963 10967 10970 10975 10980 10984 10985
10653 10651 10648 10647 10646 10645 10644 10643 10643 10642 10641 10640 10638 10636 10634 10631 10628 10626 10623 10620 10619 10620 10621 10622 10624 10627 10631 10636 10641 10644 10647 10651 10658 10665 10670 10676 10684 10690 10697 10704 10708 10713 10719 10724 10728 10734 10742 10749 10758 10769 10776 10781 10788 10793 10799 10807 10816 10823 10828 10829 10829 10833 10840 10845 10847 10858 10874 10886 10892 10898 10903 10908 10915 10923 10931 10937 10942 10947 10948 10949 10952 10958 10961 10964 10969 10974 10977 10979
10651 10648 10646 10645 10643 10642 10642 10641 10640 10639 10638 10637 10635 10633 10631 10628 10624 10621 10618 10615 10614 10614 10615 10616 10617 10620 10624 10628 10632 10636 10639 10643 10651 10658 10660 10664 10672 10680 10689 10696 10700 10705 10711 10715 10719 10726 10734 10742 10752 10762 10768 10773 10778 10784 10792 10803 10811 10815 10814 10813 10816 10824 10832 10838 10844 10855 10869 10878 10884 10891 10897 10904 10911 10918 10926 10932 10936 10939 10940 10940 10944 10950 10954 10958 10963 10967 10970 10973
10648 10645 10643 10642 10641 10640 10639 10638 10637 10636 10635 10634 10632 10630 10628 10625 10621 10617 10614 10611 10609 10609 10609 10610 10612 10614 10617 10620 10624 10628 10633 10637 10643 10650 10653 10657 10664 10672 10680 10687 10692 10698 10703 10707 10713 10720 10728 10735 10743 10751 10760 10766 10769 10777 10788 10795 10800 10801 10798 10800 10810 10820 10827 10834 10840 10849 10860 10869 10877 10884 10890 10897 10904 10910 10917 10924 10926 10927 10930 10933 10938 10944 10948 10952 10957 10961 10964 10969
10646 10644 10641 10640 10639 10638 10637 10636 10635 10634 10632 10631 10629 10628 10625 10622 10618 10614 10610 10608 10606 10605 10605 10606 10607 10609 10611 10614 10617 10622 10627 10631 10635 10641 10647 10652 10658 10664 10673 10680 10685 10691 10696 10701 10707 10714 10722 10728 10734 10743 10752 10757 10761 10772 10781 10785 10787 10787 10786 10793 10805 10814 10819 10826 10834 10842 10852 10862 10872 10878 10884 10890 10897 10903 10911 10916 10918 10919 10922 10926 10931 10938 10943 10947 10951 10955 10958 10963
10643 10641 10639 10637 10636 10635 10634 10633 10632 10631 10630 10628 10627 10625 10623 10620 10616 10612 10608 10605 10603 10602 10602 10602 10603 10605 10606 10609 10612 10616 10621 10624 10628 10633 10640 10647 10652 10658 10666 10672 10677 10683 10690 10695 10700 10706 10713 10720 10727 10736 10744 10750 10757 10768 10774 10776 10779 10779 10780 10789 10800 10805 10812 10822 10833 10842 10849 10858 10867 10873 10879 10885 10891 10898 10904 10907 10908 10909 10912 10918 10924 10929 10935 10940 10944 10948 10951 10956
10640 10638 10636 10635 10633 10632 10631 10630 10630 10628 10627 10626 10624 10622 10620 10617 10614 10610 10606 10603 10601 10600 10599 10600 10600 10600 10602 10605 10607 10611 10615 10618 10622 10627 10634 10641 10647 10652 10659 10665 10671 10678 10683 10687 10692 10699 10706 10713 10721 10730 10738 10746 10753 10761 10765 10767 10768 10770 10775 10785 10794 10798 10807 10820 10831 10837 10843 10852 10860 10868 10876 10883 10887 10890 10894 10897 10900 10902 10904 10909 10915 10920 10927 10933 10938 10942 10946 10950
10638 10636 10634 10632 10631 10629 10628 10628 10627 10626 10625 10623 10622 10620 10617 10615 10612 10608 10605 10602 10600 10598 10597 10597 10597 10597 10598 10600 10603 10606 10609 10613 10615 10619 10626 10634 10640 10645 10652 10659 10665 10671 10676 10679 10685 10695 10701 10706 10715 10724 10732 10740 10746 10752 10755 10756 10756 10758 10764 10776 10785 10791 10800 10815 10825 10829 10835 10843 10852 10862 10870 10875 10879 10883 10886 10890 10894 10895 10894 10898 10907 10914 10919 10925 10930 10935 10939 10943
10635 10633 10631 10630 10629 10627 10626 10625 10625 10624 10622 10621 10619 10617 10615 10613 10610 10607 10604 10601 10598 10597 10596 10595 10595 10595 10595 10597 10599 10602 10605 10607 10609 10614 10621 10627 10633 10638 10644 10650 10657 10662 10667 10671 10679 10688 10694 10698 10708 10718 10725 10731 10737 10742 10744 10746 10747 10749 10755 10767 10779 10785 10794 10809 10818 10821 10826 10835 10845 10854 10860 10865 10870 10875 10879 10884 10887 10887 10886 10892 10901 10907 10911 10916 10922 10927 10932 10936
10632 10630 10629 10628 10626 10625 10624 10623 10622 10621 10620 10618 10617 10615 10613 10611 10608 10606 10603 10600 10597 10595 10594 10594 10593 10593 10593 10594 10595 10598 10601 10603 10605 10610 10616 10622 10627 10631 10636 10642 10648 10652 10658 10664 10672 10680 10686 10690 10700 10710 10717 10723 10729 10734 10736 10738 10738 10741 10749 10762 10773 10778 10785 10796 10805 10810 10817 10826 10836 10844 10850 10856 10861 10867 10871 10876 10878 10879 10881 10885 10891 10897 10903 10908 10913 10918 10924 10929
10630 10627 10626 10625 10624 10622 10621 10620 10620 10619 10617 10616 10615 10613 10611 10609 10606 10604 10602 10599 10596 10594 10593 10592 10591 10591 10592 10592 10593 10595 10597 10599 10602 10607 10612 10617 10622 10625 10629 10635 10641 10645 10651 10657 10665 10673 10678 10682 10690 10700 10708 10714 10721 10724 10725 10727 10729 10734 10743 10754 10764 10770 10775 10784 10796 10803 10809 10818 10826 10833 10839 10845 10851 10857 10860 10863 10866 10870 10873 10876 10880 10887 10895 10900 10904 10908 10914 10919
10627 10625 10623 10622 10621 10620 10618 10618 10617 10616 10616 10614 10613 10611 10609 10607 10605 10603 10600 10598 10596 10594 10592 10591 10590 10590 10590 10591 10592 10593 10593 10596 10600 10604 10608 10612 10616 10619 10623 10629 10635 10639 10645 10652 10658 10665 10670 10674 10681 10691 10699 10705 10710 10713 10715 10718 10721 10726 10734 10744 10753 10761 10768 10777 10788 10795 10799 10805 10812 10819 10825 10831 10837 10843 10847 10851 10856 10860 10863 10866 10870 10877 10885 10890 10895 10900 10905 10910